| time (UTC) | temp C | wind direction | speed KPH | gust KPH | rain 1hr cm | rain 24hr cm | rain mn cm | humidity % | barometer mb |
| 20260507195236 | 8 | 333 | 0.0 | 6.4 | 0.00 | 0.03 | 0.03 | 68 | 1016.8 |
| 20260507194336 | 8 | 311 | 0.0 | 6.4 | 0.00 | 0.05 | 0.03 | 66 | 1016.8 |
| 20260507192536 | 9 | 292 | 0.0 | 6.4 | 0.00 | 0.20 | 0.03 | 64 | 1016.7 |
| 20260507191636 | 9 | 292 | 1.6 | 8.0 | 0.00 | 0.23 | 0.03 | 64 | 1016.7 |
| 20260507190736 | 9 | 292 | 3.2 | 8.0 | 0.00 | 0.30 | 0.03 | 62 | 1016.5 |
| 20260507185836 | 10 | 292 | 1.6 | 9.7 | 0.00 | 0.38 | 0.03 | 61 | 1016.5 |
| 20260507184936 | 10 | 292 | 0.0 | 12.9 | 0.00 | 0.43 | 0.03 | 60 | 1016.2 |
| 20260507184036 | 10 | 292 | 1.6 | 4.8 | 0.00 | 0.43 | 0.03 | 57 | 1016.0 |
| 20260507183136 | 10 | 302 | 0.0 | 20.9 | 0.00 | 0.43 | 0.03 | 55 | 1016.2 |
| 20260507182236 | 10 | 303 | 0.0 | 9.7 | 0.00 | 0.43 | 0.03 | 52 | 1016.0 |
| 20260507181336 | 10 | 323 | 3.2 | 11.3 | 0.00 | 0.43 | 0.03 | 50 | 1015.9 |
| 20260507180436 | 11 | 306 | 0.0 | 6.4 | 0.00 | 0.43 | 0.03 | 47 | 1016.0 |
| 20260507175536 | 11 | 305 | 3.2 | 9.7 | 0.00 | 0.43 | 0.03 | 47 | 1015.8 |
| 20260507174636 | 11 | 319 | 3.2 | 8.0 | 0.00 | 0.43 | 0.03 | 46 | 1015.8 |
| 20260507173736 | 12 | 323 | 1.6 | 4.8 | 0.00 | 0.43 | 0.03 | 45 | 1015.7 |
| 20260507171036 | 11 | 310 | 1.6 | 8.0 | 0.00 | 0.43 | 0.03 | 45 | 1015.5 |
| 20260507170136 | 12 | 314 | 3.2 | 11.3 | 0.00 | 0.43 | 0.03 | 42 | 1015.6 |
| 20260507165236 | 12 | 334 | 3.2 | 12.9 | 0.00 | 0.43 | 0.03 | 41 | 1015.4 |
| 20260507164336 | 12 | 314 | 3.2 | 17.7 | 0.00 | 0.43 | 0.03 | 42 | 1015.4 |
| 20260507163436 | 12 | 317 | 3.2 | 9.7 | 0.00 | 0.43 | 0.03 | 39 | 1015.2 |
| 20260507162536 | 13 | 313 | 3.2 | 16.1 | 0.00 | 0.43 | 0.03 | 36 | 1015.2 |
| 20260507161637 | 15 | 314 | 1.6 | 12.9 | 0.00 | 0.43 | 0.03 | 29 | 1015.1 |
| 20260507160736 | 15 | 321 | 1.6 | 6.4 | 0.00 | 0.43 | 0.03 | 27 | 1015.1 |
| 20260507155836 | 15 | 304 | 1.6 | 8.0 | 0.00 | 0.43 | 0.03 | 27 | 1014.8 |
| 20260507154936 | 15 | 312 | 0.0 | 6.4 | 0.00 | 0.43 | 0.03 | 30 | 1014.9 |
| 20260507153136 | 14 | 283 | 3.2 | 14.5 | 0.00 | 0.43 | 0.03 | 33 | 1014.9 |
| 20260507151336 | 15 | 307 | 3.2 | 12.9 | 0.00 | 0.43 | 0.03 | 33 | 1014.9 |
| 20260507145536 | 14 | 312 | 0.0 | 16.1 | 0.00 | 0.43 | 0.03 | 35 | 1014.6 |
| 20260507144636 | 15 | 315 | 3.2 | 12.9 | 0.00 | 0.43 | 0.03 | 32 | 1014.7 |
| 20260507143737 | 15 | 311 | 3.2 | 9.7 | 0.00 | 0.43 | 0.03 | 35 | 1014.6 |
| 20260507141036 | 16 | 316 | 3.2 | 11.3 | 0.00 | 0.43 | 0.03 | 28 | 1014.6 |
| 20260507140136 | 16 | 324 | 1.6 | 8.0 | 0.00 | 0.43 | 0.03 | 27 | 1014.5 |
| 20260507135237 | 16 | 354 | 3.2 | 8.0 | 0.00 | 0.46 | 0.03 | 25 | 1014.4 |
| 20260507134336 | 16 | 292 | 0.0 | 8.0 | 0.00 | 0.46 | 0.03 | 26 | 1014.5 |
| 20260507132536 | 16 | 313 | 3.2 | 12.9 | 0.00 | 0.48 | 0.03 | 26 | 1014.6 |
| 20260507130736 | 17 | 315 | 0.0 | 12.9 | 0.00 | 0.48 | 0.03 | 22 | 1014.3 |
| 20260507125836 | 17 | 271 | 3.2 | 12.9 | 0.00 | 0.48 | 0.03 | 26 | 1014.3 |
| 20260507124036 | 16 | 291 | 4.8 | 12.9 | 0.00 | 0.48 | 0.03 | 26 | 1014.3 |
| 20260507123136 | 16 | 308 | 1.6 | 11.3 | 0.00 | 0.48 | 0.03 | 29 | 1014.3 |
| 20260507121336 | 16 | 314 | 3.2 | 9.7 | 0.00 | 0.48 | 0.03 | 26 | 1014.2 |
| 20260507115536 | 16 | 307 | 3.2 | 6.4 | 0.00 | 0.48 | 0.03 | 29 | 1014.1 |
| 20260507114636 | 15 | 301 | 1.6 | 11.3 | 0.00 | 0.48 | 0.03 | 31 | 1014.2 |
| 20260507113736 | 15 | 307 | 1.6 | 11.3 | 0.00 | 0.48 | 0.03 | 29 | 1014.3 |
| 20260507112836 | 16 | 332 | 3.2 | 8.0 | 0.00 | 0.48 | 0.03 | 30 | 1014.2 |
| 20260507111936 | 15 | 209 | 3.2 | 8.0 | 0.00 | 0.48 | 0.03 | 28 | 1014.2 |
| 20260507111036 | 15 | 316 | 1.6 | 6.4 | 0.00 | 0.48 | 0.03 | 30 | 1014.0 |
| 20260507110136 | 16 | 336 | 3.2 | 6.4 | 0.00 | 0.48 | 0.03 | 28 | 1014.1 |
| 20260507104336 | 15 | 309 | 1.6 | 12.9 | 0.00 | 0.48 | 0.03 | 31 | 1014.0 |
| 20260507103436 | 15 | 313 | 3.2 | 12.9 | 0.00 | 0.48 | 0.03 | 28 | 1014.0 |
| 20260507102536 | 16 | 302 | 1.6 | 11.3 | 0.00 | 0.48 | 0.03 | 25 | 1014.0 |
| 20260507101636 | 16 | 299 | 3.2 | 8.0 | 0.00 | 0.48 | 0.03 | 27 | 1013.9 |
| 20260507100736 | 17 | 314 | 3.2 | 11.3 | 0.00 | 0.48 | 0.03 | 25 | 1013.9 |
| 20260507095836 | 17 | 271 | 3.2 | 12.9 | 0.00 | 0.48 | 0.03 | 25 | 1013.8 |
| 20260507094936 | 17 | 288 | 4.8 | 12.9 | 0.00 | 0.48 | 0.03 | 24 | 1013.7 |
| 20260507094036 | 16 | 330 | 3.2 | 9.7 | 0.00 | 0.48 | 0.03 | 27 | 1013.6 |
| 20260507092236 | 16 | 329 | 1.6 | 12.9 | 0.00 | 0.48 | 0.03 | 29 | 1013.5 |
| 20260507091336 | 15 | 302 | 1.6 | 12.9 | 0.00 | 0.48 | 0.03 | 32 | 1013.4 |
| 20260507090436 | 15 | 308 | 3.2 | 6.4 | 0.00 | 0.48 | 0.03 | 30 | 1013.6 |
| 20260507084636 | 16 | 319 | 3.2 | 22.5 | 0.00 | 0.48 | 0.03 | 30 | 1013.3 |
| 20260507083736 | 16 | 315 | 4.8 | 22.5 | 0.00 | 0.48 | 0.03 | 26 | 1013.4 |
| 20260507082836 | 17 | 303 | 8.0 | 16.1 | 0.00 | 0.48 | 0.03 | 25 | 1013.3 |
| 20260507081036 | 15 | 330 | 3.2 | 12.9 | 0.00 | 0.48 | 0.03 | 39 | 1013.1 |
| 20260507080136 | 13 | 306 | 3.2 | 8.0 | 0.00 | 0.48 | 0.03 | 43 | 1013.1 |
| 20260507075236 | 13 | 303 | 3.2 | 8.0 | 0.00 | 0.48 | 0.03 | 44 | 1013.0 |
| 20260507073436 | 13 | 320 | 1.6 | 6.4 | 0.00 | 0.48 | 0.03 | 46 | 1013.1 |
| 20260507072536 | 13 | 315 | 1.6 | 6.4 | 0.00 | 0.48 | 0.03 | 45 | 1012.9 |
| 20260507071636 | 13 | 304 | 1.6 | 6.4 | 0.00 | 0.48 | 0.03 | 46 | 1012.9 |
| 20260507070736 | 13 | 292 | 1.6 | 4.8 | 0.00 | 0.48 | 0.03 | 46 | 1013.0 |
| 20260507065836 | 13 | 333 | 1.6 | 9.7 | 0.00 | 0.48 | 0.03 | 44 | 1012.8 |
| 20260507064936 | 15 | 347 | 1.6 | 6.4 | 0.00 | 0.48 | 0.03 | 43 | 1012.6 |
| 20260507063136 | 15 | 305 | 3.2 | 11.3 | 0.00 | 0.48 | 0.03 | 42 | 1012.4 |
| 20260507062236 | 15 | 334 | 0.0 | 8.0 | 0.00 | 0.48 | 0.03 | 42 | 1012.5 |
| 20260507061336 | 16 | 314 | 1.6 | 9.7 | 0.00 | 0.48 | 0.03 | 41 | 1012.3 |
| 20260507060436 | 16 | 328 | 3.2 | 6.4 | 0.00 | 0.48 | 0.03 | 46 | 1012.2 |
| 20260507055536 | 16 | 316 | 1.6 | 14.5 | 0.00 | 0.48 | 0.03 | 48 | 1012.1 |
| 20260507054636 | 15 | 343 | 3.2 | 9.7 | 0.00 | 0.48 | 0.03 | 52 | 1012.0 |
| 20260507053736 | 15 | 281 | 0.0 | 8.0 | 0.00 | 0.48 | 0.03 | 58 | 1011.7 |
| 20260507052836 | 14 | 307 | 0.0 | 8.0 | 0.00 | 0.48 | 0.03 | 64 | 1011.7 |
| 20260507051936 | 14 | 269 | 1.6 | 8.0 | 0.00 | 0.48 | 0.03 | 71 | 1011.6 |
| 20260507051036 | 13 | 286 | 1.6 | 6.4 | 0.00 | 0.48 | 0.03 | 87 | 1011.6 |
| 20260507050136 | 13 | 315 | 3.2 | 6.4 | 0.00 | 0.48 | 0.03 | 99 | 1011.7 |
| 20260507045236 | 12 | 314 | 3.2 | 6.4 | 0.00 | 0.48 | 0.03 | 99 | 1011.4 |
| 20260507044336 | 11 | 334 | 0.0 | 11.3 | 0.00 | 0.48 | 0.03 | 99 | 1011.2 |
| 20260507043436 | 11 | 318 | 3.2 | 8.0 | 0.00 | 0.48 | 0.03 | 99 | 1011.2 |
| 20260507042536 | 11 | 295 | 3.2 | 6.4 | 0.00 | 0.48 | 0.03 | 99 | 1011.1 |
| 20260507041636 | 10 | 339 | 3.2 | 16.1 | 0.00 | 0.48 | 0.03 | 99 | 1011.0 |
| 20260507040736 | 10 | 72 | 3.2 | 8.0 | 0.03 | 0.48 | 0.03 | 99 | 1011.0 |
| 20260507034936 | 10 | 252 | 0.0 | 4.8 | 0.03 | 0.48 | 0.03 | 99 | 1010.8 |
| 20260507034036 | 10 | 292 | 1.6 | 14.5 | 0.03 | 0.48 | 0.03 | 99 | 1011.0 |
| 20260507033136 | 10 | 280 | 1.6 | 8.0 | 0.03 | 0.48 | 0.03 | 99 | 1010.7 |
| 20260507032235 | 10 | 289 | 1.6 | 6.4 | 0.03 | 0.48 | 0.03 | 99 | 1010.7 |
| 20260507031336 | 10 | 281 | 0.0 | 12.9 | 0.03 | 0.48 | 0.03 | 99 | 1010.9 |
| 20260507025536 | 9 | 329 | 0.0 | 6.4 | 0.00 | 0.46 | 0.00 | 99 | 1010.7 |
| 20260507024636 | 9 | 307 | 0.0 | 6.4 | 0.00 | 0.46 | 0.00 | 99 | 1010.7 |
| 20260507023736 | 9 | 300 | 0.0 | 6.4 | 0.00 | 0.46 | 0.00 | 99 | 1010.6 |
| 20260507022835 | 9 | 267 | 1.6 | 6.4 | 0.00 | 0.46 | 0.00 | 99 | 1010.6 |
| 20260507021935 | 9 | 206 | 1.6 | 4.8 | 0.00 | 0.46 | 0.00 | 99 | 1010.7 |
| 20260507020135 | 9 | 325 | 1.6 | 6.4 | 0.00 | 0.46 | 0.00 | 99 | 1010.3 |
| 20260507015236 | 9 | 335 | 1.6 | 6.4 | 0.00 | 0.46 | 0.00 | 99 | 1010.3 |
| 20260507014335 | 9 | 340 | 0.0 | 4.8 | 0.00 | 0.46 | 0.00 | 99 | 1010.3 |
| 20260507013435 | 9 | 321 | 1.6 | 9.7 | 0.00 | 0.46 | 0.00 | 99 | 1010.4 |
| 20260507012536 | 9 | 328 | 0.0 | 8.0 | 0.00 | 0.46 | 0.00 | 99 | 1010.3 |
| 20260507011636 | 9 | 296 | 0.0 | 4.8 | 0.00 | 0.46 | 0.00 | 99 | 1010.2 |
| 20260507010736 | 9 | 61 | 0.0 | 3.2 | 0.00 | 0.46 | 0.00 | 99 | 1010.2 |
| 20260507004935 | 9 | 314 | 0.0 | 3.2 | 0.00 | 0.46 | 0.00 | 99 | 1010.1 |
| 20260507003135 | 10 | 311 | 0.0 | 3.2 | 0.00 | 0.46 | 0.00 | 99 | 1009.8 |
| 20260507002235 | 10 | 313 | 0.0 | 3.2 | 0.00 | 0.46 | 0.00 | 99 | 1009.9 |
| 20260507000435 | 10 | 291 | 0.0 | 3.2 | 0.00 | 0.46 | 0.00 | 99 | 1010.0 |
| 20260506235536 | 10 | 292 | 0.0 | 3.2 | 0.00 | 0.46 | 0.00 | 99 | 1010.0 |
| 20260506234635 | 10 | 274 | 0.0 | 3.2 | 0.00 | 0.46 | 0.00 | 99 | 1009.9 |
| 20260506233735 | 10 | 292 | 0.0 | 3.2 | 0.00 | 0.46 | 0.00 | 99 | 1009.8 |
| 20260506232835 | 10 | 305 | 0.0 | 3.2 | 0.00 | 0.46 | 0.00 | 99 | 1009.6 |
| 20260506231935 | 10 | 299 | 0.0 | 3.2 | 0.00 | 0.46 | 0.00 | 99 | 1009.5 |
| 20260506231036 | 10 | 292 | 0.0 | 3.2 | 0.00 | 0.46 | 0.00 | 99 | 1009.2 |
| 20260506230135 | 10 | 314 | 0.0 | 4.8 | 0.00 | 0.46 | 0.00 | 97 | 1009.4 |
| 20260506225236 | 9 | 1 | 0.0 | 3.2 | 0.00 | 0.46 | 0.00 | 95 | 1009.4 |
| 20260506223436 | 9 | 0 | 0.0 | 0.0 | 0.00 | 0.46 | 0.00 | 92 | 1009.2 |
| 20260506222535 | 10 | 0 | 0.0 | 0.0 | 0.00 | 0.46 | 0.00 | 92 | 1009.2 |
| 20260506221636 | 10 | 0 | 0.0 | 0.0 | 0.00 | 0.46 | 0.00 | 91 | 1009.2 |
| 20260506215835 | 10 | 1 | 0.0 | 1.6 | 0.00 | 0.46 | 0.46 | 90 | 1009.1 |
| 20260506214935 | 10 | 1 | 0.0 | 1.6 | 0.00 | 0.46 | 0.46 | 89 | 1009.2 |
| 20260506214035 | 10 | 0 | 0.0 | 0.0 | 0.00 | 0.46 | 0.46 | 88 | 1009.2 |
| 20260506213135 | 11 | 338 | 0.0 | 1.6 | 0.00 | 0.46 | 0.46 | 88 | 1009.3 |
| 20260506212235 | 11 | 1 | 0.0 | 3.2 | 0.00 | 0.46 | 0.46 | 87 | 1009.2 |
| 20260506210435 | 11 | 347 | 0.0 | 1.6 | 0.00 | 0.46 | 0.46 | 84 | 1008.7 |
| 20260506205535 | 11 | 0 | 0.0 | 0.0 | 0.00 | 0.46 | 0.46 | 83 | 1008.6 |
| 20260506204635 | 11 | 0 | 0.0 | 0.0 | 0.03 | 0.46 | 0.46 | 82 | 1008.6 |
| 20260506203736 | 11 | 291 | 0.0 | 3.2 | 0.13 | 0.46 | 0.46 | 82 | 1008.4 |
| 20260506202836 | 11 | 250 | 0.0 | 3.2 | 0.18 | 0.46 | 0.46 | 81 | 1008.3 |
| 20260506201935 | 11 | 225 | 0.0 | 1.6 | 0.20 | 0.46 | 0.46 | 79 | 1008.2 |
| 20260506201036 | 11 | 225 | 0.0 | 1.6 | 0.28 | 0.46 | 0.46 | 78 | 1008.3 |